Location: St. Louis
(38.6270°N, 90.1994°W)
Time: 10:47:39
(UTC-06:00)

A-11 Canister half - Pass Details

Date: 11 December 2021
Orbit: 1524 x 1684 km, 47.3° (Epoch: 25 January)

Event Time Altitude Azimuth Distance (km) Brightness Sun altitude
Rises 20:02:06 0° 170° (S) 4,849 11.5 -38.7°
Enters shadow 20:02:56 - 167° (SSE) 4,672 11.4 -38.8°
Reaches altitude 10° 20:07:35 10° 146° (SSE) 3,898 - -39.7°
Maximum altitude 20:11:45 13° 121° (ESE) 3,652 - -40.5°
Drops below altitude 10° 20:15:56 10° 96° (E) 3,937 - -41.4°
Sets 20:21:27 0° 72° (ENE) 4,939 - -42.4°
